Regional Weather Roundup
Issued by NWS

Home | Current Version | Previous Version | Text Only | Print | Product List | Glossary On
Versions: 1 2 3 4 5 6 7 8 9 10 11 12 13 14 15 16 17 18 19 20 21 22 23 24 25 26 27 28 29 30 31 32 33 34 35 36 37 38 39 40 41 42 43 44 45 46 47 48 49 50
000
ASCA44 KEWX 060720
RWRMX

LATIN AMERICA AND CARIBBEAN REGIONAL WEATHER ROUNDUP
NATIONAL WEATHER SERVICE AUSTIN/SAN ANTONIO TX
200 AM CDT FRI MAY 06 2016

NOTE: "FAIR" INDICATED FEW OR NO CLOUDS BELOW 12,000 FEET WITH NO
SIGNIFICANT WEATHER AND/OR OBSTRUCTIONS TO VISIBILITY.

BAJA CALIFORNIA

CITY           SKY/WX    TMP DP  RH WIND       PRES   REMARKS
MEXICALI       CLEAR     66  45  45 W20       29.75S
S.J. DEL CABO    N/A    N/A N/A N/A MISG        N/A
TIJUANA        CLOUDY    59  50  72 W8        29.92S

NORTHWESTERN MEXICO

CITY           SKY/WX    TMP DP  RH WIND       PRES   REMARKS
HERMOSILLO     CLEAR     72  52  49 CALM      29.87S

NORTHEASTERN MEXICO

CITY           SKY/WX    TMP DP  RH WIND       PRES   REMARKS
MONCLOVA         N/A    N/A N/A N/A MISG        N/A
MONTERREY      PTCLDY    70  50  49 NE6       30.01F
REYNOSA          N/A    N/A N/A N/A MISG        N/A
CD. VICTORIA     N/A    N/A N/A N/A MISG        N/A

WESTERN MEXICO

CITY           SKY/WX    TMP DP  RH WIND       PRES   REMARKS
AGUASCALIENTES   N/A    N/A N/A N/A MISG        N/A
COLIMA           N/A    N/A N/A N/A MISG        N/A
GUADALAJARA    CLEAR     70  43  37 W7        30.16F
MAZATLAN       PTCLDY    70  63  78 SE5       29.90S
P. VALLARTA    CLEAR     73  72  94 CALM      29.89F
URUAPAN          N/A    N/A N/A N/A MISG        N/A
ZACATECAS      CLEAR     57  30  35 CALM      30.28F

CENTRAL MEXICO

CITY           SKY/WX    TMP DP  RH WIND       PRES   REMARKS
CUERNAVACA       N/A    N/A N/A N/A MISG        N/A
MEXICO CITY    CLEAR     66  43  42 NW9       30.33F
MORELIA        CLEAR     66  54  63 CALM      30.22S
POZA RICA        N/A    N/A N/A N/A MISG        N/A
QUERETARO      CLEAR     59  54  82 NE5       30.32F
S. LUIS POTOSI CLEAR     57  46  67 CALM      30.25F
TOLUCA         PTCLDY    57  52  82 NE5       30.40F

SOUTHERN MEXICO

CITY           SKY/WX    TMP DP  RH WIND       PRES   REMARKS
ACAPULCO       MOCLDY    81  77  89 W3        29.87F
B. DE HUATULCO   N/A    N/A N/A N/A MISG        N/A
P. ESCONDIDO     N/A    N/A N/A N/A MISG        N/A
VERACRUZ         N/A    N/A N/A N/A MISG        N/A

YUCATAN PENINSULA

CITY           SKY/WX    TMP DP  RH WIND       PRES   REMARKS
CAMPECHE         N/A    N/A N/A N/A MISG        N/A
CANCUN         CLEAR     61  61 100 W3        29.93F
CHETUMAL         N/A    N/A N/A N/A MISG        N/A
CD. DEL CARMEN   N/A    N/A N/A N/A MISG        N/A
COZUMEL        CLEAR     70  63  78 N12       29.93F
MERIDA         CLEAR     72  61  68 N5        29.95F
MINATITLAN       N/A    N/A N/A N/A MISG        N/A
TAPACHULA      PTCLDY    79  77  94 CALM      29.80F

CENTRAL AMERICA

CITY           SKY/WX    TMP DP  RH WIND       PRES   REMARKS

CARIBBEAN

CITY           SKY/WX    TMP DP  RH WIND       PRES   REMARKS
ARUBA          PTCLDY    82  77  83 E15       29.77F HX  91
KINGSTON       SHOWER    77  75  94 E6        29.80S
NASSAU           N/A     70  63  78 CALM      29.82F
SAN JUAN       PTCLDY    77  75  94 E5        29.90F
SANTO DOMINGO  PTCLDY    77  75  94 SE7       29.83F
ST. CROIX      PTCLDY    81  75  83 SE10      29.92
ST. MAARTEN    PTCLDY    81  75  83 SE10      29.92F
ST. THOMAS     PTCLDY    82  75  78 SE14      29.91F

$$




USA.gov is the U.S. government's official web portal to all federal, state and local government web resources and services.